Weather History for Guadalajara Don Miguel, Mexico

Change the Weather History Date:

Friday, February 22, 2013

  Actual Average Record
Temperature  
Mean Temperature 62 °F -  
Max Temperature 80 °F 80 °F 87 °F (2007)
Min Temperature 44 °F 43 °F 33 °F (1998)
Degree Days  
Heating Degree Days 3    
Growing Degree Days 12 (Base 50)    
Moisture  
Dew Point 37 °F    
Average Humidity 43    
Maximum Humidity 81    
Minimum Humidity 16    
Precipitation  
Precipitation 0.00 in - - ()
Sea Level Pressure  
Sea Level Pressure 30.02 in    
Wind  
Wind Speed 3 mph ()    
Max Wind Speed 17 mph    
Max Gust Speed 23 mph    
Visibility 9.9 miles    
Events      
Averages and records for this station are not official NWS values.
T = Trace of Precipitation, MM = Missing Value Source: Averaged Metar Reports

Daily Weather History Graph

Daily Weather History Graph

Search for Another Location

Airport:

Trip Planner

Search our weather history database for the weather conditions in past years. The results will help you decide how hot, cold, wet, or windy it might be!

Date:

Astronomy

Feb. 22, 2013 Rise Set
Actual Time 7:18 AM CST 6:55 PM CST
Civil Twilight 6:55 AM CST 7:17 PM CST
Nautical Twilight 6:30 AM CST 7:43 PM CST
Astronomical Twilight 6:04 AM CST 8:09 PM CST
Moon 4:22 PM CST (2/22) 4:49 AM CST (2/22)
Length of Visible Light 12h 21m
Length of Day
11h 37m
Waxing Gibbous, 90% of the Moon is Illuminated
Feb 22
Waxing Gibbous
Feb 25
Full
Mar 4
Last Quarter
Mar 11
New
Mar 19
First Quarter

Hourly Weather History & Observations

Time (CST) Temp. Dew Point Humidity Pressure Visibility Wind Dir Wind Speed Gust Speed Precip Events Conditions
12:50 AM 57.2 °F 39.2 °F 51% 30.13 in 10.0 mi Calm Calm - N/A   Scattered Clouds
1:53 AM 53.6 °F 41.0 °F 62% 30.12 in 10.0 mi South 3.5 mph - N/A   Scattered Clouds
2:46 AM 50.0 °F 41.0 °F 71% 29.86 in 10.0 mi Calm Calm - N/A   Scattered Clouds
3:50 AM 50.0 °F 39.2 °F 66% 30.09 in 10.0 mi Calm Calm - N/A   Scattered Clouds
4:57 AM 46.4 °F 41.0 °F 81% 30.10 in 10.0 mi Calm Calm - N/A   Scattered Clouds
5:48 AM 44.6 °F 39.2 °F 81% 29.86 in 10.0 mi Calm Calm - N/A   Scattered Clouds
6:55 AM 44.6 °F 37.4 °F 76% 30.13 in 10.0 mi Calm Calm - N/A   Scattered Clouds
7:54 AM 46.4 °F 39.2 °F 76% 30.16 in 10.0 mi Calm Calm - N/A   Mostly Cloudy
8:52 AM 59.0 °F 48.2 °F 67% 29.95 in 10.0 mi Calm Calm - N/A   Scattered Clouds
9:51 AM 68.0 °F 42.8 °F 40% 30.18 in 8.0 mi Calm Calm - N/A   Partly Cloudy
10:48 AM 69.8 °F 39.2 °F 33% 30.17 in 10.0 mi Calm Calm - N/A   Scattered Clouds
11:48 AM 73.4 °F 33.8 °F 23% 29.88 in 10.0 mi NNW 4.6 mph - N/A   Scattered Clouds
12:42 PM 75.2 °F 41.0 °F 29% 30.12 in 10.0 mi NE 4.6 mph - N/A   Mostly Cloudy
1:50 PM 75.2 °F 32.0 °F 21% 30.08 in 10.0 mi WNW 9.2 mph - N/A   Mostly Cloudy
2:41 PM 78.8 °F 32.0 °F 18% 29.79 in 10.0 mi West 8.1 mph 19.6 mph N/A   Mostly Cloudy
3:47 PM 80.6 °F 32.0 °F 17% 30.02 in 10.0 mi WSW 10.4 mph 23.0 mph N/A   Mostly Cloudy
4:46 PM 78.8 °F 28.4 °F 16% 30.01 in 10.0 mi West 17.3 mph - N/A   Mostly Cloudy
5:51 PM 77.0 °F 26.6 °F 16% 29.80 in 10.0 mi West 16.1 mph - N/A   Mostly Cloudy
6:50 PM 73.4 °F 28.4 °F 19% 30.04 in 10.0 mi WSW 15.0 mph - N/A   Mostly Cloudy
7:48 PM 69.8 °F 30.2 °F 23% 30.07 in 10.0 mi West 10.4 mph - N/A   Mostly Cloudy
8:43 PM 69.8 °F 32.0 °F 25% 29.84 in 10.0 mi West 13.8 mph - N/A   Mostly Cloudy
9:46 PM 64.4 °F 39.2 °F 40% 30.12 in 10.0 mi Calm Calm - N/A   Scattered Clouds
10:44 PM 62.6 °F 41.0 °F 45% 30.14 in 10.0 mi West 3.5 mph - N/A   Mostly Cloudy
11:43 PM 60.8 °F 41.0 °F 48% 29.86 in 10.0 mi West 3.5 mph - N/A   Mostly Cloudy